sat.trackr.live / text

‹ back to catalog

STARLINK-31076

NORAD 58736 · 2024-005J

PAYLOAD ACTIVE UNKNOWN

§ Identity

Operator
Country
US
Launch date
2024-01-07
Launch site
AFETR
Launch vehicle
Mass (kg)
RCS (m²)

Purposes: comms

External: N2YO · Heavens-Above · Gunter

§ Orbital elements

Epoch: 2026-05-25T01:05:55.836096Z

Period
94.26 min
Inclination
43.0028°
Eccentricity
0.0001355
Mean motion
15.27611838 rev/d
Perigee alt
482.0 km
Apogee alt
483.9 km
Semi-major
6,861.1 km
B*
1.8068e-4
RAAN
148.3327°
Arg perigee
278.5496°
Mean anomaly
81.5202°
Rev number
13,216

§ Raw data

STARLINK-310761 58736U 24005J   26145.04578514  .00004718  00000+0  18068-3 0  99972 58736  43.0028 148.3327 0001355 278.5496  81.5202 15.27611838132164

JSON: /api/v1/satellites/58736 · /tle

For live sub-satellite position, see the globe view (requires WebGL).

§ Visibility from observer

Set your observer location to see the next 7 days of passes ≥ 10°. The values pass through the URL so the page stays shareable.

No JS? Fill the form by hand. The geolocation button needs JavaScript.